Location: Tamazert
(32.6352°N, 5.2072°W)
Time: 18:04:14
(UTC+00:00)

Transit 2A Rocket - Pass Details

Date: 12 October 2022
Orbit: 589 x 912 km, 66.7° (Epoch: 07 December)

Event Time Altitude Azimuth Distance (km) Brightness Sun altitude
Rises 04:02:23 0° 229° (SW) 2,840 - -30.2°
Reaches altitude 10° 04:04:53 10° 241° (WSW) 1,920 - -29.7°
Maximum altitude 04:08:35 28° 302° (WNW) 1,110 - -28.9°
Drops below altitude 10° 04:12:18 10° 2° (N) 1,925 - -28.1°
Exits shadow 04:12:22 10° 3° (N) 1,947 7.2 -28.1°
Sets 04:14:49 0° 14° (NNE) 2,849 8.3 -27.6°
